Temp
12 11 11 11 11 11 10 10 10 10 10 10 10 10 10 10 10 10 10 10 10 10 10 10 10 10 10 10 10 9 9 9 9 9 9 9 9 9 9 9 9 9 9
11 11 11 11 11 11 11 10 10 10 9 9 10 10 10 10 10 10 10 10 10 10 10 10 9 9 9 9 10 9 9 9 9 9 9 9 9 9 9 9 9 9 9
11 11 11 11 11 10 10 10 10 9 9 9 9 10 10 10 10 10 9 9 9 9 9 9 9 9 9 9 9 9 9 9 9 9 9 9 9 9 9 9 9 9 9
11 11 11 11 10 10 10 10 10 9 9 9 9 10 10 10 10 9 9 9 9 9 9 9 9 8 8 8 9 9 9 9 9 9 8 8 8 8 8 8 8 8 8
11 11 11 11 10 10 10 10 10 9 9 9 9 9 9 9 9 9 9 9 9 9 8 8 8 8 8 8 8 8 8 8 8 8 8 8 8 8 8 8 8 8 7
11 11 11 10 10 10 10 10 10 9 9 9 9 9 9 9 9 9 9 9 8 8 8 8 8 8 8 8 8 8 8 8 8 7 7 8 8 7 7 7 7 7 7
10 11 11 10 10 10 10 10 9 9 9 9 9 9 9 9 9 9 9 8 8 8 8 8 8 7 7 7 7 7 7 7 7 7 7 7 7 7 7 7 7 7 6
10 10 10 10 10 10 10 10 9 9 9 9 9 9 8 8 8 8 8 8 8 8 8 8 8 8 7 7 7 7 7 7 7 7 7 7 7 7 7 7 6 7 6
10 10 10 10 10 10 10 9 9 9 9 9 9 9 8 8 8 8 8 8 8 8 8 8 8 7 7 7 7 7 7 7 7 7 7 7 7 7 7 6 6 6 6
9 9 10 10 10 10 9 9 9 9 9 9 9 9 8 8 8 8 8 8 8 8 8 8 8 7 7 7 7 7 7 7 7 7 7 7 6 7 7 6 6 6 6
8 9 9 9 9 9 9 9 9 9 9 9 9 8 8 8 8 8 8 8 8 8 7 7 7 7 7 7 7 7 7 7 6 6 6 6 6 6 6 6 6 6 6
8 8 8 9 9 9 9 9 9 8 8 8 8 8 8 8 8 8 8 8 8 7 7 7 7 7 7 7 7 7 6 6 6 6 6 6 6 6 6 6 6 6 6
8 8 8 8 8 8 8 8 8 8 8 8 8 8 8 8 8 8 8 7 7 7 7 7 7 7 6 6 6 6 6 6 6 6 6 6 6 6 6 6 6 6 6
7 7 7 8 8 8 8 8 8 8 8 8 8 8 8 8 8 7 7 7 7 7 7 7 7 6 6 6 6 6 6 6 6 6 6 6 6 6 6 6 6 6 5
7 7 7 7 7 7 7 7 7 7 7 7 8 8 8 7 8 7 7 7 7 7 7 7 6 6 6 6 6 6 6 6 5 5 5 5 5 5 5 5 5 5 5
7 7 7 7 7 7 7 7 7 7 7 7 7 8 7 7 7 7 7 7 7 7 7 6 6 6 6 6 6 5 6 5 5 5 5 5 5 5 5 5 5 5 5
7 7 7 7 7 7 7 7 7 7 6 7 7 7 7 7 7 7 7 7 7 6 6 6 6 6 6 6 6 5 5 5 5 5 5 5 5 5 5 5 4 4 4
6 6 6 6 6 6 6 6 6 7 7 6 7 6 6 7 7 7 7 7 6 6 6 6 6 6 6 6 5 5 5 5 5 5 5 5 4 5 4 4 4 4 4
6 6 6 6 6 6 6 6 6 6 6 6 6 6 6 6 6 6 6 6 6 6 6 6 6 5 5 5 5 5 5 5 5 5 5 5 4 4 4 4 4 4 3
6 6 6 6 6 6 5 5 5 6 5 5 6 6 6 6 6 5 6 6 6 6 6 6 5 5 5 5 5 5 5 5 5 5 5 4 4 4 4 3 3 3 3
6 6 6 5 5 5 5 5 5 5 5 5 5 5 5 5 5 5 5 5 5 5 5 5 5 5 5 5 5 5 5 5 5 5 5 4 4 4 3 3 3 3 3
6 6 6 6 5 5 5 5 5 5 5 5 5 4 5 5 5 5 5 5 4 5 5 5 5 5 4 4 4 4 5 5 5 4 4 4 4 3 3 3 2 2 2
6 6 6 6 6 6 6 5 5 5 5 5 5 5 5 4 4 4 4 4 4 4 4 4 4 4 4 4 4 4 4 4 4 4 4 4 3 3 3 2 2 2 2
6 6 6 6 6 6 6 5 5 5 5 5 4 4 4 4 4 4 4 4 4 4 4 4 4 4 3 3 3 4 4 4 3 4 3 3 3 2 2 2 1 1 1
5 5 5 5 6 6 6 5 5 5 5 5 4 4 4 4 4 3 3 3 4 4 4 3 4 4 3 3 3 3 3 3 2 3 3 2 2 1 1 1 1 1 1
4 4 5 5 5 5 5 5 5 4 4 4 4 4 3 3 3 3 3 3 3 3 3 3 3 3 3 2 2 2 2 2 2 2 1 1 1 1 1 1 1 0 0
Height
3185 3185 3186 3185 3186 3186 3186 3185 3185 3185 3184 3183 3182 3181 3179 3178 3177 3176 3174 3174 3173 3172 3171 3171 3170 3170 3171 3171 3172 3173 3174 3175 3176 3176 3176 3176 3176 3175 3175 3174 3174 3174 3173
3184 3185 3186 3186 3186 3186 3186 3186 3185 3185 3185 3184 3183 3181 3180 3178 3177 3176 3175 3174 3174 3173 3173 3172 3172 3172 3172 3172 3173 3174 3175 3175 3175 3175 3175 3175 3175 3175 3174 3174 3173 3173 3172
3183 3184 3186 3186 3187 3187 3186 3187 3186 3186 3185 3184 3183 3182 3180 3179 3178 3177 3176 3175 3175 3175 3174 3173 3173 3173 3174 3173 3173 3174 3174 3174 3175 3175 3175 3175 3174 3174 3174 3173 3173 3172 3171
3182 3183 3185 3186 3187 3187 3187 3187 3187 3187 3186 3185 3184 3182 3181 3180 3179 3178 3177 3176 3176 3176 3176 3175 3175 3174 3174 3174 3174 3174 3174 3175 3175 3175 3175 3174 3174 3173 3173 3172 3171 3171 3170
3180 3182 3184 3186 3186 3187 3187 3188 3188 3188 3187 3186 3185 3184 3182 3181 3180 3179 3178 3178 3177 3177 3177 3176 3176 3176 3176 3176 3175 3175 3175 3175 3175 3175 3175 3174 3173 3173 3172 3171 3170 3170 3169
3179 3181 3183 3184 3185 3186 3187 3188 3188 3189 3188 3187 3187 3186 3184 3183 3182 3180 3179 3179 3178 3178 3178 3177 3177 3177 3177 3177 3177 3176 3176 3175 3176 3175 3174 3174 3173 3172 3171 3170 3170 3169 3168
3178 3180 3182 3183 3184 3186 3186 3187 3188 3188 3188 3188 3188 3187 3186 3185 3184 3182 3181 3180 3180 3179 3178 3178 3178 3178 3178 3178 3177 3177 3176 3176 3175 3175 3174 3173 3172 3171 3170 3170 3169 3168 3168
3178 3179 3181 3182 3184 3185 3186 3186 3187 3188 3188 3188 3188 3188 3187 3186 3185 3184 3184 3182 3181 3180 3180 3180 3180 3179 3178 3178 3178 3177 3177 3176 3175 3174 3173 3172 3171 3170 3169 3168 3168 3168 3167
3177 3178 3179 3180 3182 3183 3185 3185 3186 3187 3187 3187 3188 3188 3187 3187 3186 3185 3185 3184 3183 3182 3182 3181 3180 3180 3180 3179 3178 3178 3177 3176 3175 3174 3173 3172 3170 3169 3168 3167 3166 3166 3165
3175 3176 3178 3179 3180 3181 3183 3183 3184 3185 3185 3186 3186 3187 3186 3186 3185 3185 3184 3184 3183 3183 3182 3181 3181 3180 3180 3179 3178 3178 3177 3176 3175 3174 3172 3171 3169 3168 3167 3166 3165 3164 3163
3173 3175 3176 3177 3178 3179 3180 3181 3182 3183 3183 3184 3184 3185 3185 3184 3184 3184 3183 3183 3183 3183 3182 3182 3181 3180 3180 3179 3178 3178 3177 3176 3174 3173 3171 3169 3168 3167 3166 3165 3164 3162 3162
3170 3172 3173 3174 3175 3176 3177 3178 3179 3180 3181 3181 3182 3182 3182 3182 3182 3182 3182 3182 3182 3181 3181 3181 3180 3180 3179 3178 3178 3177 3176 3175 3173 3172 3170 3169 3167 3166 3165 3164 3162 3161 3160
3167 3168 3170 3171 3172 3173 3174 3175 3176 3177 3178 3178 3179 3179 3180 3180 3180 3179 3180 3180 3180 3180 3179 3179 3178 3178 3177 3177 3176 3176 3174 3173 3172 3170 3169 3167 3166 3164 3163 3162 3161 3160 3159
3163 3165 3166 3167 3168 3169 3170 3172 3173 3174 3174 3174 3175 3176 3177 3177 3177 3177 3177 3177 3177 3177 3177 3176 3176 3176 3175 3174 3174 3173 3172 3172 3170 3168 3167 3165 3164 3163 3161 3160 3159 3158 3157
3160 3161 3162 3163 3164 3166 3167 3168 3169 3169 3170 3170 3171 3172 3172 3173 3173 3173 3174 3174 3174 3174 3174 3174 3173 3172 3172 3171 3171 3170 3169 3168 3167 3165 3163 3162 3161 3160 3159 3159 3157 3156 3155
3155 3156 3158 3159 3160 3161 3163 3164 3165 3165 3165 3165 3166 3167 3168 3168 3169 3169 3169 3170 3169 3170 3170 3170 3169 3169 3168 3167 3167 3167 3166 3165 3164 3162 3160 3159 3158 3157 3156 3155 3155 3154 3153
3148 3150 3153 3154 3156 3157 3158 3159 3160 3161 3161 3162 3162 3162 3163 3162 3163 3164 3164 3165 3164 3164 3165 3165 3165 3164 3164 3163 3162 3162 3161 3160 3159 3158 3156 3155 3154 3154 3153 3152 3152 3151 3151
3143 3145 3147 3148 3149 3151 3152 3153 3154 3155 3156 3157 3157 3157 3157 3157 3157 3158 3158 3159 3159 3159 3159 3159 3159 3159 3159 3158 3158 3158 3157 3156 3155 3154 3152 3152 3151 3150 3150 3149 3149 3148 3148
3136 3137 3139 3140 3142 3144 3146 3146 3147 3148 3148 3149 3150 3151 3153 3152 3152 3152 3152 3152 3153 3153 3153 3153 3153 3153 3153 3153 3153 3153 3152 3151 3150 3149 3148 3147 3147 3146 3145 3145 3145 3144 3144
3126 3127 3129 3131 3133 3136 3137 3137 3138 3139 3142 3142 3142 3144 3146 3145 3147 3146 3146 3146 3146 3147 3147 3147 3147 3147 3147 3148 3148 3147 3147 3146 3145 3144 3143 3142 3142 3141 3140 3140 3139 3139 3139
3116 3118 3120 3121 3124 3126 3126 3126 3129 3131 3134 3134 3136 3137 3137 3138 3138 3139 3139 3139 3139 3140 3141 3141 3140 3141 3142 3142 3142 3142 3140 3139 3139 3138 3137 3137 3136 3135 3135 3134 3134 3133 3133
3109 3109 3111 3113 3115 3117 3118 3117 3119 3121 3123 3124 3126 3128 3129 3130 3131 3131 3132 3132 3132 3133 3134 3134 3134 3135 3134 3135 3135 3134 3134 3134 3133 3132 3131 3130 3130 3129 3129 3128 3128 3127 3127
3101 3102 3104 3105 3107 3108 3109 3109 3108 3109 3109 3112 3115 3119 3122 3123 3123 3123 3124 3124 3125 3125 3126 3127 3127 3127 3127 3127 3128 3128 3127 3127 3127 3126 3125 3124 3123 3123 3123 3123 3122 3122 3121
3095 3095 3096 3097 3097 3098 3099 3098 3099 3099 3100 3103 3106 3108 3111 3112 3113 3114 3115 3114 3116 3116 3116 3118 3119 3120 3118 3120 3119 3120 3120 3120 3119 3120 3119 3118 3117 3116 3116 3116 3115 3115 3114
3089 3089 3089 3089 3090 3090 3090 3089 3089 3090 3091 3093 3093 3094 3097 3098 3100 3102 3103 3104 3105 3106 3107 3108 3110 3110 3111 3111 3112 3113 3112 3112 3112 3111 3111 3111 3110 3110 3109 3108 3107 3106 3105
3084 3084 3084 3083 3083 3082 3082 3082 3081 3080 3082 3083 3084 3085 3086 3085 3086 3089 3091 3092 3094 3096 3098 3099 3100 3100 3102 3101 3103 3103 3104 3104 3104 3103 3103 3103 3103 3102 3101 3100 3099 3097 3096
Wind_Speed
8 8 5 5 8 11 13 11 9 10 10 10 10 10 9 8 6 6 6 7 8 7 6 5 6 6 6 6 7 7 6 7 6 5 5 5 5 4 3 4 5 6 7
12 10 8 4 8 9 10 10 11 10 10 9 10 10 10 9 7 6 6 7 8 7 6 5 9 9 8 5 3 5 5 5 4 4 4 4 4 4 4 5 6 7 8
16 14 11 6 7 8 10 10 10 10 10 9 10 9 9 9 8 7 6 6 6 7 6 8 9 8 7 6 5 5 3 3 3 3 3 3 4 5 5 6 7 7 7
17 17 14 9 9 9 9 9 8 8 9 9 9 9 9 9 9 8 7 6 7 7 7 7 7 6 6 4 4 4 3 2 1 2 3 4 5 5 5 5 6 6 7
18 19 16 12 11 9 7 7 7 7 7 8 9 9 10 9 10 9 9 8 7 7 7 7 7 6 5 4 3 2 1 0 1 1 2 3 4 5 5 5 5 6 6
19 20 18 14 13 11 10 4 5 6 7 8 8 8 11 12 11 10 10 10 10 9 9 9 8 7 6 6 5 4 3 3 2 3 3 4 4 5 6 6 6 7 6
14 16 18 16 15 12 11 3 2 4 5 5 6 7 9 8 10 11 11 11 11 11 10 10 9 8 7 6 6 5 4 3 3 4 4 6 6 7 8 8 8 8 8
13 15 16 17 17 15 12 7 4 2 3 2 3 3 7 8 9 9 9 11 11 12 11 10 9 8 7 6 6 5 5 4 4 4 5 5 7 7 8 8 8 9 9
14 13 17 18 18 17 15 13 10 8 3 1 1 1 2 4 5 6 6 7 8 8 8 8 8 7 7 7 7 6 6 6 5 6 6 7 7 8 8 8 9 9 10
14 15 15 18 19 19 18 16 14 12 9 5 4 3 3 3 2 3 3 2 2 3 4 4 4 4 4 5 6 6 7 7 7 7 8 8 8 9 10 9 9 11 11
13 14 14 18 20 21 21 18 17 15 13 11 9 8 6 5 6 5 4 3 3 3 2 1 1 2 3 4 5 6 8 9 9 9 9 10 10 11 11 10 11 10 10
13 13 14 17 18 22 23 21 19 18 16 14 14 12 11 10 8 9 8 8 7 7 7 7 6 6 6 6 6 7 8 10 11 12 12 12 12 12 11 11 11 10 10
15 18 17 17 18 20 22 23 22 20 19 17 18 17 16 15 13 12 12 12 12 12 11 11 11 10 10 10 10 10 11 11 13 14 14 13 13 13 12 11 11 10 10
20 20 19 20 20 18 20 22 24 24 22 22 21 21 20 19 17 17 17 16 16 16 15 15 15 14 14 14 14 13 13 14 15 16 15 15 13 13 13 12 11 11 9
26 24 23 23 21 20 21 21 23 25 26 25 25 26 24 24 22 22 21 21 19 19 19 19 18 18 18 17 17 16 16 17 17 18 18 16 15 15 13 13 12 10 9
26 24 22 23 23 22 22 20 21 24 26 28 28 28 28 28 27 26 25 24 24 23 22 22 22 22 21 20 19 18 18 20 20 19 20 18 16 15 14 12 11 10 9
30 29 26 25 24 24 25 27 28 27 26 27 27 29 31 30 30 30 29 28 27 26 25 24 25 24 24 23 22 21 21 22 21 21 20 19 17 16 14 13 12 10 9
33 32 31 31 30 31 31 30 29 31 33 31 30 29 30 31 31 31 30 30 29 29 28 27 27 27 25 24 23 24 24 23 22 22 21 21 19 17 16 14 14 12 11
37 38 38 37 36 35 36 35 33 32 32 34 36 34 33 31 31 31 31 32 32 31 30 28 28 28 27 25 25 27 26 25 24 23 23 22 20 19 18 17 16 16 15
42 42 43 43 42 41 40 39 37 37 34 37 38 38 37 38 37 35 33 33 33 33 32 31 29 28 27 26 28 27 27 26 25 25 24 24 22 21 20 19 20 19 19
45 46 47 47 46 45 45 45 42 40 37 36 37 35 36 38 39 39 38 37 36 34 33 32 31 30 28 28 28 28 28 27 27 26 25 25 23 23 23 23 23 23 23
42 46 48 50 50 50 50 50 48 45 43 41 38 37 36 38 36 36 36 36 37 36 35 34 33 31 31 30 29 29 29 28 27 27 26 26 26 25 25 26 26 26 26
38 40 41 43 44 46 47 50 54 54 54 50 46 42 40 38 39 38 39 39 38 37 36 37 37 35 34 31 30 31 30 29 27 28 28 27 27 26 27 28 29 30 30
30 33 36 38 39 39 39 41 43 48 49 48 49 48 47 46 45 45 45 45 42 40 39 37 38 37 38 36 34 33 30 29 28 30 28 27 27 27 29 30 31 32 33
23 24 24 26 29 33 38 41 41 42 43 43 44 46 47 50 53 53 50 49 48 44 43 42 39 41 40 40 38 35 33 36 32 32 31 28 29 27 28 31 34 36 36
21 22 23 25 27 28 30 32 38 45 46 45 44 43 41 40 41 45 50 52 53 51 48 47 43 42 43 43 40 38 39 40 36 34 32 32 31 33 35 37 37 38 38
Wind_Direction
208 174 160 70 89 85 69 62 63 65 61 55 47 41 31 24 23 28 20 27 42 48 66 96 110 116 129 147 164 182 185 203 219 243 262 271 277 272 275 285 290 299 302
195 184 174 127 104 84 62 60 57 60 58 54 48 41 37 34 34 37 33 40 46 55 61 93 104 98 98 99 136 162 171 187 211 231 245 254 266 280 289 290 296 297 299
197 194 181 161 124 98 65 63 59 61 54 51 48 44 41 42 47 51 49 50 63 69 64 85 93 86 87 88 98 116 131 152 179 204 229 257 275 282 284 288 295 302 306
197 194 184 182 155 128 97 73 69 58 38 43 45 43 46 48 54 59 64 63 60 75 75 79 86 89 92 94 103 119 131 156 204 254 271 275 275 279 291 299 305 309 313
198 196 192 191 171 148 110 80 78 68 45 53 54 52 54 58 65 71 78 82 83 82 88 92 95 96 90 92 92 91 98 102 300 297 292 288 294 311 309 309 327 326 324
201 201 197 195 187 172 144 90 92 67 51 57 58 54 56 60 65 73 79 83 85 87 88 89 87 85 85 80 75 77 70 54 24 10 346 328 324 324 321 327 338 328 327
203 207 209 203 199 190 167 152 132 80 70 63 56 54 53 56 61 69 76 80 83 84 83 84 85 84 81 80 77 69 55 37 20 0 344 331 329 327 320 324 321 316 310
208 206 212 212 206 201 189 185 188 193 80 52 48 51 46 46 52 56 66 73 75 78 80 83 82 79 75 69 64 57 45 28 12 356 342 333 329 324 320 318 316 307 301
218 214 211 214 213 209 204 194 196 195 171 127 325 335 338 27 32 38 58 69 72 75 75 71 69 65 60 55 49 43 38 29 15 1 345 338 330 321 320 319 309 302 294
220 227 227 221 218 216 214 208 206 204 209 223 240 273 280 268 291 354 5 34 64 67 70 68 59 52 41 28 20 15 11 6 359 351 344 341 329 323 320 318 306 301 298
226 230 236 233 226 220 218 217 215 215 219 225 224 238 247 263 261 260 261 287 306 283 278 275 307 328 341 341 341 343 343 341 339 335 333 333 328 325 325 319 312 305 300
222 233 239 241 235 229 224 222 221 221 222 229 234 233 237 244 258 262 259 260 264 264 263 265 272 279 286 294 302 308 316 321 321 322 322 326 324 322 323 320 314 311 305
220 221 227 237 233 232 232 230 228 229 230 230 241 237 240 243 249 253 258 258 257 260 264 266 269 273 280 285 288 291 297 305 306 308 311 312 316 318 317 318 317 316 311
227 225 227 235 237 237 232 232 235 237 238 237 239 240 241 243 248 252 253 255 258 261 265 265 267 271 276 278 280 286 290 296 299 298 303 303 304 306 309 311 311 309 306
235 235 234 236 238 241 241 240 238 239 242 242 239 243 245 246 246 249 252 254 256 262 265 268 268 269 271 276 277 280 285 291 292 294 297 296 297 299 301 304 304 304 304
244 244 243 239 236 244 247 249 252 249 248 246 241 242 241 244 246 248 250 252 253 256 261 265 267 268 269 272 274 277 282 288 290 292 293 291 290 290 291 291 291 296 301
241 245 249 248 246 243 247 251 254 256 257 254 248 244 243 244 246 247 247 249 251 255 259 262 264 267 267 268 271 275 282 285 286 288 288 287 286 284 283 282 281 283 283
241 245 246 248 247 249 256 263 259 254 254 257 254 249 246 245 246 248 249 249 250 253 256 258 260 264 264 265 269 275 280 281 282 284 283 284 283 281 279 276 274 274 275
247 245 248 249 249 249 256 260 257 256 253 250 252 253 253 251 251 251 248 249 253 254 254 254 258 261 261 263 269 276 277 278 279 281 281 280 278 276 273 270 270 269 270
247 249 250 250 251 252 255 257 256 254 253 249 251 252 255 255 255 255 254 251 255 257 255 255 258 258 259 262 269 273 275 276 277 278 278 277 275 273 270 267 265 267 270
249 251 252 253 255 256 258 259 257 258 259 257 255 256 254 253 255 254 255 256 257 258 257 255 253 253 257 262 268 271 271 271 274 277 276 274 272 270 268 264 263 266 269
251 253 254 255 257 258 261 264 264 263 260 258 255 256 256 254 252 254 256 258 260 259 257 255 256 254 256 261 264 266 268 270 273 274 272 270 269 268 266 264 265 266 268
253 254 256 259 261 262 262 262 261 261 263 262 258 258 260 260 259 258 258 259 261 260 257 257 258 257 256 257 260 263 266 268 269 271 271 270 269 269 267 266 265 266 269
261 260 259 259 259 260 261 261 261 262 264 264 262 262 261 262 261 261 258 257 259 259 260 260 258 258 258 257 258 261 265 266 268 268 268 271 271 271 268 265 265 266 268
260 260 262 262 262 261 261 261 259 258 261 262 257 254 254 255 253 254 254 258 255 255 259 257 254 259 261 258 258 259 263 268 267 270 271 269 271 273 273 269 266 265 267
264 267 266 265 263 265 266 265 262 259 258 260 261 260 257 254 253 252 253 252 257 257 256 257 255 254 258 256 255 257 261 263 267 268 271 272 274 273 275 277 270 267 268